Theta_e
333 332 338 346 346 350 353 354 359 363 367 357 356 363 353 354 356 356 360 356 356 353 350 351 348 348 354 355 353 352 351 353 353 350 345 346 347 346 346 343 344 345 346 348 349 349 347 348 347 346 346 348 351 351 351 352 352 352 352 352 352 352 351 351 349 350 350 349 350 351 351 350 350 348 346 347 347 346 349 352 352 352 353 353 353 354 354 353 353 352 351 351 351 351 350 349 350
337 338 345 349 347 355 361 359 364 362 360 351 353 361 352 354 357 356 359 357 357 350 348 350 352 355 354 352 350 351 351 349 350 349 347 347 348 348 345 343 344 343 345 348 350 349 347 348 347 347 347 349 351 351 352 352 352 351 352 353 353 352 351 351 350 350 351 350 349 351 351 350 349 348 347 348 348 348 351 352 351 352 353 353 352 353 354 353 352 350 350 351 351 351 350 350 349
341 347 348 349 351 357 363 362 363 356 353 350 350 359 357 358 359 358 360 358 355 347 349 352 355 355 351 355 353 354 353 348 347 347 347 348 349 350 346 343 342 342 345 349 350 348 346 348 349 349 349 350 351 351 352 352 352 351 352 353 352 352 352 351 351 351 352 351 350 351 351 350 349 348 348 348 348 349 351 352 352 353 353 353 352 352 353 352 351 350 351 351 350 350 349 349 350
345 351 351 353 359 360 367 371 370 359 351 351 348 355 358 357 358 357 357 355 351 347 351 352 355 352 352 358 353 353 353 349 348 347 347 348 348 349 346 344 342 341 345 350 349 347 346 348 349 350 351 351 351 351 351 351 351 351 352 353 352 352 351 351 351 351 352 352 352 352 351 350 349 350 350 349 349 350 352 352 352 353 352 351 351 352 351 351 351 351 351 350 350 350 348 348 349
349 354 352 354 365 364 368 372 374 363 353 357 352 354 356 354 357 355 354 353 351 350 351 353 354 351 352 352 349 354 353 350 349 347 349 348 347 346 345 344 341 343 347 349 348 348 348 348 349 349 350 350 350 350 349 350 350 351 352 353 353 352 352 352 351 351 352 352 352 352 351 350 350 351 351 349 350 351 352 352 352 352 351 351 351 351 350 350 352 351 350 351 351 349 349 349 349
350 355 354 356 362 361 367 364 364 362 359 369 358 353 357 352 357 357 355 353 351 352 352 352 350 349 350 347 347 351 350 350 350 348 349 349 348 345 344 343 342 345 347 348 348 349 349 350 349 349 349 349 348 348 348 349 350 350 351 353 353 352 352 352 352 351 351 351 351 352 350 351 351 351 351 350 351 351 351 351 351 352 350 350 350 350 350 350 352 352 351 351 351 350 350 350 350
352 357 359 361 362 362 370 362 361 366 363 369 360 354 356 354 357 356 355 353 352 351 350 350 346 350 352 348 349 349 347 349 349 348 349 348 348 345 344 342 342 345 346 347 348 349 350 350 350 350 349 349 349 348 348 349 350 350 351 352 352 352 352 353 353 352 351 352 352 352 351 352 352 351 351 350 351 351 350 349 350 351 350 349 349 351 350 351 352 352 351 351 351 351 350 351 351
352 359 362 364 368 369 372 365 365 371 364 364 365 359 356 357 355 354 355 351 352 351 349 348 346 353 353 350 353 350 347 348 348 349 348 347 347 344 343 342 342 345 346 347 348 349 351 351 351 350 349 349 349 349 349 349 350 351 351 352 352 352 351 352 352 351 351 352 352 352 351 353 352 350 350 350 351 350 349 348 349 350 351 349 349 351 351 351 352 352 351 350 350 350 350 352 351
352 358 362 365 371 369 367 367 366 370 372 369 368 363 358 358 355 354 355 352 351 352 351 349 347 354 353 351 353 350 348 349 349 348 347 348 347 344 345 343 344 346 347 346 347 350 352 351 350 349 349 349 349 350 350 351 351 351 351 351 351 351 351 352 352 352 351 351 351 350 351 353 351 350 350 350 351 351 349 349 349 350 351 350 350 351 351 352 351 352 352 351 350 350 350 350 350
356 358 361 367 370 363 359 364 365 368 376 374 368 363 361 357 354 354 356 355 353 353 351 348 349 352 352 352 353 350 350 349 348 349 349 349 347 345 348 348 346 346 347 346 348 350 351 351 349 349 349 350 350 351 351 352 352 351 351 351 350 349 351 352 351 352 351 351 351 350 351 352 351 350 349 350 351 351 350 349 349 350 351 351 351 351 351 351 351 351 351 351 351 350 350 350 349
364 361 360 367 365 357 355 361 365 367 373 372 363 362 363 356 354 355 356 356 353 353 349 348 351 350 351 353 353 351 350 349 349 350 350 350 348 347 350 351 348 346 347 347 348 349 350 351 350 350 350 352 352 349 349 351 351 349 351 351 349 348 351 351 351 351 351 351 351 351 351 350 350 349 348 349 350 350 350 349 349 350 350 350 349 350 350 351 350 348 349 350 351 351 352 351 349
367 365 364 368 363 361 362 362 364 367 368 365 358 359 360 354 355 355 356 355 352 352 350 351 352 349 353 354 353 351 349 350 351 351 351 351 350 350 351 350 348 346 347 348 349 350 350 351 351 352 352 353 351 348 348 350 350 349 350 351 350 349 350 351 350 350 350 350 350 350 350 350 350 349 349 349 348 349 350 350 349 350 350 349 348 349 350 350 348 347 347 348 350 351 351 351 350
367 365 367 366 363 368 367 364 367 365 360 360 360 357 354 354 356 354 355 355 352 352 351 351 349 349 354 353 352 350 350 351 351 352 351 351 351 351 350 347 346 346 347 348 349 350 350 351 352 353 352 352 349 347 349 350 350 350 350 350 349 349 350 350 350 350 349 349 349 349 349 350 351 350 350 349 349 348 349 348 349 349 349 348 348 349 349 347 346 345 345 345 348 351 350 351 350
366 363 367 366 365 370 367 364 366 358 355 361 365 360 354 355 355 353 354 354 353 353 349 347 346 351 353 353 354 350 350 351 351 352 351 351 350 349 348 346 346 347 347 348 349 350 351 351 352 352 352 351 348 347 349 350 349 350 351 350 348 348 349 349 349 349 349 348 349 348 348 349 351 351 351 351 351 350 349 348 348 348 348 348 348 349 347 345 343 343 342 342 346 348 349 351 351
364 363 367 367 364 366 366 367 365 357 356 365 368 364 359 356 353 352 353 355 354 347 347 346 347 355 354 353 355 350 350 352 351 352 351 350 349 349 348 347 347 347 348 349 350 351 351 351 351 351 351 350 348 347 350 350 349 350 350 349 348 348 349 348 348 348 349 349 349 349 348 350 351 351 352 352 352 351 349 349 349 349 349 349 348 346 344 342 341 340 340 340 344 346 347 349 351
362 365 368 365 361 361 365 370 367 358 359 368 369 363 358 354 352 352 351 352 351 344 348 349 347 354 352 350 351 349 351 352 351 351 351 351 350 351 350 349 348 348 350 350 351 351 351 351 351 351 351 350 347 348 349 350 349 349 350 350 349 349 350 349 348 349 350 350 349 351 350 350 351 351 351 352 352 351 350 350 350 349 349 347 345 343 341 339 338 339 339 339 342 345 347 348 350
363 368 369 362 360 362 367 371 366 360 362 369 366 359 356 354 355 354 350 349 349 349 351 349 346 349 348 348 349 350 352 352 352 352 352 352 351 352 351 350 349 349 350 350 351 351 351 351 350 350 351 349 347 347 349 349 349 350 350 350 350 349 350 350 349 350 350 350 350 351 349 349 351 351 351 351 350 349 348 349 348 347 347 346 342 339 338 337 337 337 337 339 341 344 346 347 349
366 371 366 361 365 365 367 370 367 364 365 367 366 361 357 357 357 352 350 351 350 351 350 347 347 347 347 349 350 351 352 352 352 352 351 351 351 351 351 351 350 350 350 350 350 350 350 349 348 350 350 350 348 347 348 349 350 350 349 350 350 349 350 350 350 350 349 350 350 348 348 349 351 351 351 350 348 348 348 348 346 345 345 343 339 337 337 336 334 334 336 339 342 344 346 346 347
365 369 365 363 365 364 365 369 369 367 365 368 370 365 360 360 356 350 352 352 350 351 350 349 348 348 349 349 350 351 351 352 351 351 351 351 351 351 351 352 352 351 350 349 350 350 350 349 348 349 350 350 349 348 349 350 350 350 350 349 349 349 349 350 349 349 349 349 349 348 348 349 350 350 349 347 347 348 349 348 346 345 344 340 338 338 337 334 332 333 337 341 342 344 344 344 346
364 367 369 367 360 361 364 367 368 366 367 368 369 369 366 362 354 349 352 351 350 352 350 350 350 350 350 349 350 351 351 351 351 351 350 350 351 351 351 352 352 351 350 350 350 351 351 350 349 349 350 350 350 349 349 349 350 350 350 349 349 349 349 349 349 349 349 349 349 349 349 349 350 349 347 346 347 348 348 347 346 346 345 341 339 336 333 332 332 335 338 341 342 343 343 343 344
363 366 371 367 360 363 364 363 365 364 368 367 366 370 367 362 357 351 350 350 351 352 349 349 350 349 349 348 349 350 350 350 350 350 350 350 351 351 351 352 352 351 352 351 351 352 351 350 349 349 350 351 350 349 349 349 350 350 350 349 349 349 349 350 350 349 349 348 348 349 348 348 348 347 346 346 346 346 345 344 344 344 343 340 338 335 332 331 332 335 338 341 342 341 342 341 342
363 364 364 361 360 366 362 360 363 362 365 366 366 366 361 361 359 353 350 350 350 349 348 348 347 348 348 348 348 349 349 348 349 349 349 350 350 351 352 352 352 352 352 352 352 352 351 349 349 349 349 350 350 349 350 349 349 350 349 350 350 350 350 350 350 349 349 348 348 347 347 346 346 345 345 345 343 343 341 341 342 341 341 339 337 336 335 335 335 335 337 338 340 340 340 341 342
366 364 358 356 358 362 360 359 362 364 366 367 366 362 362 364 358 351 349 348 351 350 347 346 346 347 347 347 347 347 347 347 348 348 349 350 350 351 352 352 352 352 353 353 352 352 350 348 348 348 349 349 349 349 350 349 349 348 348 348 349 349 349 349 350 349 349 348 347 346 346 345 345 345 344 343 341 340 340 340 341 341 340 339 338 340 341 342 341 339 337 338 339 340 341 342 343
368 364 356 355 356 357 358 359 361 365 366 366 363 359 362 367 359 352 351 349 352 351 346 345 345 345 347 347 346 347 347 347 347 348 349 350 350 351 352 352 352 353 353 353 352 351 349 348 347 347 348 347 348 349 349 348 348 347 348 348 348 348 348 348 349 349 349 348 347 347 346 345 344 344 343 341 340 340 340 340 340 340 340 341 343 344 345 344 345 344 343 342 343 344 344 343 344
365 361 356 355 356 357 358 359 360 362 363 362 362 360 360 362 360 356 353 351 349 347 345 345 344 345 347 346 347 347 346 347 346 347 349 349 350 351 352 352 352 353 353 353 352 351 349 348 346 346 347 347 347 348 348 348 348 347 348 348 348 348 348 348 348 349 348 348 348 347 346 345 343 343 341 340 340 340 340 340 341 343 344 346 346 346 347 347 347 348 347 347 347 347 346 344 343
361 357 356 356 359 358 358 360 360 361 361 361 365 366 363 362 360 354 350 350 346 345 346 345 344 345 347 347 347 347 347 347 346 347 348 350 350 351 351 352 352 353 352 353 353 351 350 348 346 346 346 346 347 347 348 348 348 348 348 348 348 348 348 348 348 348 348 348 348 347 345 343 342 341 340 339 340 340 342 343 345 347 347 348 348 349 349 349 349 348 348 348 348 348 346 344 342
356 354 355 356 359 357 356 359 359 359 358 361 367 368 367 366 359 351 348 347 344 345 346 344 345 346 346 346 346 347 347 347 347 347 349 350 351 351 351 352 352 352 351 352 353 351 350 348 346 346 345 346 347 347 347 347 348 348 348 348 347 348 348 348 348 347 347 347 347 346 344 342 341 340 340 341 342 344 346 347 348 348 349 349 349 349 350 349 349 348 349 350 349 348 346 345 343
355 355 355 355 358 357 356 358 359 361 359 359 366 367 369 371 360 351 349 346 345 347 346 345 345 346 346 346 346 346 346 347 347 347 349 350 351 352 352 352 352 351 350 351 353 351 350 350 347 346 345 345 346 347 347 347 348 348 348 348 348 347 346 346 346 345 345 345 345 344 342 342 342 340 341 344 345 347 347 348 349 349 349 349 349 349 349 349 349 350 351 350 349 348 347 347 346
356 356 358 357 360 360 357 359 359 362 359 357 365 362 362 369 360 352 350 347 347 348 346 345 346 346 346 346 346 346 346 346 347 347 348 350 351 352 351 352 352 351 351 351 351 350 351 350 348 347 346 345 345 346 346 347 347 348 349 349 347 344 343 342 343 342 343 343 344 343 342 344 344 342 344 346 347 347 348 348 349 349 350 350 350 350 349 349 350 351 350 348 348 348 346 347 348
360 358 361 361 363 362 358 358 359 361 357 357 365 358 358 369 362 355 352 346 346 348 346 346 346 346 346 346 346 346 344 344 346 347 348 349 350 352 352 352 352 352 352 352 351 350 350 350 348 347 347 345 345 346 347 347 347 348 349 347 344 341 341 340 340 341 341 342 342 342 343 344 345 345 345 346 347 347 348 348 349 350 350 350 351 350 349 349 349 350 348 348 348 348 347 347 347
364 361 364 365 362 359 359 358 359 363 357 358 367 360 361 369 362 360 355 346 346 346 345 346 346 345 345 345 345 345 343 343 346 347 348 350 350 352 352 352 352 352 353 353 352 351 349 349 348 346 347 345 345 347 348 347 347 348 347 344 342 341 340 340 339 340 340 341 341 342 343 344 344 345 346 347 347 347 348 349 350 350 351 351 351 350 349 349 349 349 348 348 348 347 347 347 347
366 359 359 364 361 359 363 360 360 365 360 360 366 360 360 363 362 363 355 347 347 345 345 345 345 345 344 344 344 344 342 343 346 347 348 349 350 351 352 352 352 352 352 353 353 351 348 348 347 347 347 346 345 346 347 346 347 347 344 343 343 343 342 341 341 341 341 342 342 342 343 344 346 347 348 348 348 348 348 349 350 351 351 353 352 349 349 351 351 351 349 349 349 348 348 348 347
365 360 356 359 360 360 364 360 359 365 364 362 364 364 361 360 362 361 353 349 348 345 345 345 345 344 343 344 343 343 343 343 345 347 348 349 350 351 351 352 351 350 350 351 351 349 348 348 348 348 347 345 345 345 345 345 346 346 344 344 345 346 345 344 344 344 345 345 344 344 345 346 347 348 349 349 349 348 348 350 350 350 351 352 351 350 350 351 352 351 351 351 351 350 349 348 347
358 363 361 359 360 360 361 361 361 364 367 366 365 368 366 363 362 355 350 351 349 346 346 345 345 344 343 343 343 343 343 343 344 345 347 348 349 349 351 351 350 349 348 349 349 348 348 348 348 348 346 345 345 345 345 346 347 347 346 347 348 348 347 347 348 349 350 349 348 346 346 347 348 349 350 350 349 347 349 351 351 350 351 352 351 351 351 350 350 351 352 353 354 352 350 348 347
354 359 359 357 360 360 359 363 364 364 368 368 367 368 366 366 365 356 350 350 347 345 345 345 344 344 343 342 343 343 343 342 342 344 347 347 349 350 350 350 350 349 348 348 348 348 349 348 348 348 346 346 346 346 347 347 347 347 347 348 349 350 349 349 350 352 352 351 349 348 349 350 351 352 351 349 349 348 350 352 353 351 352 353 353 351 351 350 351 353 354 354 354 351 350 349 347
356 358 359 356 358 360 362 364 365 364 368 370 367 366 365 365 365 362 359 357 351 345 345 346 345 344 344 342 343 342 342 342 340 343 346 346 348 350 350 350 350 349 350 348 348 350 350 349 349 348 347 347 347 347 347 347 348 347 348 348 348 350 350 349 350 352 352 352 350 351 352 352 354 355 352 349 349 350 351 352 353 352 352 354 354 352 352 352 353 355 355 354 353 350 350 351 348
358 359 360 358 357 361 366 367 364 363 367 369 367 366 364 363 364 363 362 363 354 346 345 346 346 345 343 342 343 342 342 341 339 343 345 345 348 349 349 350 350 350 350 349 350 352 351 349 350 349 347 347 347 347 348 348 348 347 347 347 347 349 350 349 349 350 351 351 351 351 352 353 355 355 352 349 349 350 351 352 353 353 354 354 353 352 352 353 355 356 355 353 351 350 350 350 349
358 360 360 358 358 362 367 369 365 364 368 367 366 366 363 362 364 361 361 365 361 353 347 343 344 345 344 344 343 342 342 340 340 343 344 346 348 349 349 349 350 350 350 351 352 353 352 350 351 350 348 348 347 347 348 348 348 347 347 346 347 348 349 349 348 349 350 350 350 350 350 351 354 354 352 349 349 350 351 352 354 353 354 355 353 353 354 355 356 356 355 354 351 350 350 350 349
359 359 359 357 360 363 365 365 360 360 367 366 363 364 365 365 364 362 363 369 370 364 358 351 346 344 344 344 343 343 342 342 342 344 345 346 347 348 349 349 349 350 350 351 352 353 353 352 351 350 349 349 348 347 347 348 348 347 346 346 347 347 348 348 348 348 350 351 350 350 349 350 353 354 353 351 350 350 352 352 354 353 354 355 353 354 355 355 356 356 355 355 352 351 351 351 350
360 359 356 356 361 360 358 360 356 356 362 363 362 363 367 368 365 363 363 368 372 368 366 366 359 352 349 345 343 342 342 343 345 345 347 346 347 348 347 347 349 350 350 351 351 352 352 352 351 350 350 349 349 348 347 348 347 348 347 346 346 346 347 347 348 349 350 351 352 351 351 353 354 355 354 353 352 351 352 353 353 353 353 354 353 354 356 355 355 356 355 354 352 352 352 352 350
357 358 356 357 362 361 360 359 354 355 357 359 361 360 362 366 365 365 365 365 369 369 368 369 367 367 365 356 347 344 342 343 345 347 347 346 346 346 346 347 348 349 350 350 351 351 352 352 351 350 350 350 350 349 348 347 348 348 348 348 348 348 348 347 348 349 350 352 353 352 352 353 353 354 355 355 354 353 353 353 353 353 353 353 353 354 356 354 354 355 355 355 353 352 352 352 351
351 353 358 360 362 364 365 360 356 357 355 357 359 354 355 362 364 366 366 365 366 369 369 366 366 371 372 366 355 346 343 342 345 347 346 346 346 346 347 347 347 348 349 349 350 351 351 352 352 351 351 352 351 350 349 347 349 350 349 349 349 350 351 351 350 350 351 353 354 351 351 352 352 352 353 355 355 354 354 354 353 353 353 352 353 355 355 354 353 353 355 356 354 353 352 351 351
346 352 357 359 362 364 363 360 356 354 354 357 357 353 353 357 362 364 364 365 364 365 369 366 364 366 369 371 362 350 344 343 345 347 346 346 346 346 347 347 347 348 348 349 349 350 351 351 352 352 351 352 351 349 349 348 349 350 349 350 350 350 352 353 353 352 353 353 353 352 352 353 352 351 352 354 355 355 354 355 354 354 353 352 354 354 353 352 353 353 354 355 353 353 353 351 351
344 350 356 361 364 364 362 359 357 355 356 358 358 358 354 352 359 363 362 363 364 363 366 366 365 363 365 370 366 352 344 344 345 347 347 346 346 347 347 347 347 348 348 348 349 350 351 351 352 352 351 351 350 349 348 347 349 351 350 350 349 349 349 351 353 353 353 353 353 353 353 354 354 352 352 353 355 356 355 355 356 355 353 352 353 354 353 352 353 354 355 355 354 353 354 353 352
343 350 359 361 362 363 361 358 358 357 355 356 356 356 353 353 360 366 364 362 362 363 362 362 363 362 362 364 364 354 345 345 345 346 347 346 346 347 347 348 347 348 348 348 349 350 350 351 352 352 351 351 350 349 348 347 350 352 350 350 350 349 349 349 350 350 351 352 353 353 352 354 355 354 354 354 356 357 356 355 356 355 353 353 354 354 354 353 353 355 355 354 353 353 354 354 353
346 355 359 358 358 360 359 357 355 351 349 353 354 354 352 354 359 362 364 362 360 361 359 358 359 359 359 360 360 355 347 345 346 346 346 346 346 348 348 348 347 348 348 348 349 350 350 351 351 352 352 350 350 350 349 348 350 352 351 350 351 350 349 350 350 349 351 352 353 353 353 355 355 354 355 356 357 357 356 356 355 354 354 355 354 354 355 354 353 355 355 354 354 354 354 354 354
353 358 357 356 357 358 360 359 350 343 344 348 350 353 352 352 357 358 360 361 358 357 355 355 357 357 357 357 357 355 348 345 346 346 346 346 347 348 348 349 348 348 349 348 349 349 350 351 351 352 351 350 350 350 349 349 350 352 351 351 351 351 350 351 351 350 351 352 353 354 354 355 354 354 356 356 356 357 357 357 355 353 354 355 355 355 354 354 353 353 354 355 356 355 354 354 354
354 357 353 351 352 352 355 354 347 342 344 346 347 353 353 351 356 358 358 357 354 353 352 352 355 356 357 355 356 355 348 344 345 346 346 346 346 348 349 349 349 349 349 349 349 349 350 351 351 351 351 350 349 349 349 350 351 351 351 351 350 351 351 351 351 350 351 352 353 354 355 355 353 354 357 356 356 357 357 356 356 354 354 355 355 355 354 354 353 353 354 356 356 355 354 354 354
354 354 347 349 350 349 351 350 348 345 343 346 350 352 353 351 354 357 357 355 353 351 348 350 353 354 355 354 354 354 349 343 344 345 346 346 347 348 349 349 349 349 349 350 350 350 350 351 350 351 350 350 349 348 348 349 350 350 350 351 350 350 351 350 350 351 351 352 353 354 355 355 354 354 356 356 356 357 356 356 355 355 354 354 355 355 354 354 354 354 354 355 356 355 353 353 353
353 349 342 348 349 347 349 346 345 346 344 349 353 350 350 348 350 357 357 354 353 352 349 350 353 354 353 353 353 353 350 344 344 345 346 346 348 349 350 350 350 350 350 350 351 351 350 351 351 350 350 350 349 347 348 349 350 350 349 350 350 350 350 350 350 351 352 352 353 354 354 354 354 354 355 356 356 357 356 356 355 355 355 355 357 356 355 355 354 354 354 354 355 355 354 354 354
350 349 344 346 344 343 345 343 342 347 349 351 350 347 348 347 350 359 358 353 354 353 352 352 353 354 352 351 353 353 350 346 344 345 345 346 347 349 350 350 350 351 351 351 351 351 351 351 351 351 350 350 349 347 348 349 349 350 349 349 350 351 351 351 352 352 352 352 353 354 354 353 352 353 354 354 356 356 356 356 355 355 356 357 357 357 356 355 354 355 355 354 355 355 355 354 355
332 337 340 341 343 341 339 338 343 348 352 354 348 347 354 356 358 364 361 357 356 354 355 354 353 354 353 352 354 353 350 347 345 345 346 346 347 349 350 350 351 351 351 352 352 352 352 352 351 351 351 351 349 348 348 350 349 350 350 350 350 352 353 353 353 353 352 351 352 352 352 352 351 352 353 354 355 355 355 355 355 354 356 357 358 357 356 355 355 356 356 355 355 356 355 355 355
324 325 331 338 340 336 331 330 338 344 347 350 347 349 356 355 355 363 364 361 359 357 355 355 355 355 353 352 354 354 352 349 347 347 348 347 347 349 350 350 350 352 352 352 353 353 352 352 352 352 352 351 350 349 349 350 350 350 350 350 351 353 354 353 352 352 351 351 351 351 352 352 352 352 353 354 354 354 355 355 355 355 355 357 357 356 356 356 356 356 356 355 355 356 356 355 356
324 321 327 329 325 329 333 329 329 334 339 345 346 350 352 346 347 361 367 363 360 358 356 356 356 355 355 353 353 354 352 350 349 349 349 347 347 348 350 350 350 351 352 352 353 354 353 353 353 352 352 352 351 350 350 351 350 350 350 350 351 352 353 352 351 351 350 350 351 351 352 353 353 353 353 354 354 354 355 355 355 355 355 356 356 356 356 357 357 356 356 356 355 356 355 354 355
324 322 326 323 319 322 326 325 324 326 333 344 347 348 348 344 347 359 364 363 361 359 357 358 357 356 356 353 353 355 354 352 351 350 351 349 347 348 349 350 350 351 352 353 353 354 354 353 353 353 353 352 352 351 351 351 350 350 350 350 350 351 352 351 351 350 350 350 350 350 352 353 353 353 354 355 355 354 354 355 355 355 354 355 355 355 356 357 357 357 356 356 355 355 355 354 355
322 323 323 322 325 325 320 321 325 324 331 342 343 343 346 348 353 360 363 363 363 361 359 359 357 356 356 354 354 355 355 355 353 351 352 349 347 348 349 349 351 351 352 353 353 354 355 354 354 354 353 353 352 352 351 352 351 350 350 351 350 350 350 351 351 351 350 350 350 350 351 352 352 353 354 356 356 355 354 354 355 356 355 355 354 355 356 357 358 357 356 356 356 356 355 355 355
317 318 317 316 321 322 317 318 322 325 335 344 341 339 345 352 357 363 363 360 360 361 360 359 358 356 355 355 354 354 356 357 356 354 354 350 347 347 348 349 349 351 352 353 354 355 355 355 355 354 354 353 353 352 352 352 352 352 351 352 351 349 350 350 350 351 351 351 351 351 350 351 351 352 353 355 356 356 355 354 356 357 356 354 353 355 356 357 358 357 356 356 356 357 356 354 355
319 319 319 316 315 317 316 316 320 325 331 339 341 340 346 355 357 359 360 359 360 363 361 359 359 358 356 355 354 355 358 358 357 359 358 351 347 346 347 347 347 349 352 353 354 355 355 355 356 355 354 354 353 353 353 353 353 353 352 352 351 350 349 349 350 351 352 352 352 352 351 351 353 353 354 354 356 356 356 355 355 356 356 354 353 355 356 357 358 357 357 356 356 356 355 354 355
Wind_Speed
4 5 6 6 5 4 1 0 1 1 2 3 1 1 2 2 4 5 6 5 4 3 2 5 8 5 2 5 7 5 4 2 3 4 2 3 15 20 15 17 19 18 19 16 14 13 12 12 11 12 13 13 12 11 10 10 10 9 10 10 11 12 12 11 12 13 14 15 16 16 16 16 16 16 17 16 15 15 14 14 15 16 17 16 15 14 15 17 17 18 18 17 17 17 17 16 16
5 5 4 3 3 2 0 0 2 2 3 4 1 1 1 3 6 7 8 7 3 3 4 7 7 4 4 8 8 5 5 4 1 3 2 10 18 15 16 19 18 18 18 15 14 13 12 12 11 12 13 12 11 11 10 10 10 9 10 10 10 11 12 12 13 14 15 15 16 16 15 16 16 16 16 16 15 15 14 14 15 16 16 16 16 15 14 17 17 17 17 16 16 15 15 15 15
4 2 2 1 1 1 1 1 2 3 4 4 1 1 1 5 6 6 7 5 4 8 8 7 6 2 3 7 4 3 2 4 3 3 5 14 14 12 18 18 17 17 16 15 13 12 13 12 12 12 12 12 11 11 10 10 9 9 9 9 10 11 12 13 13 14 15 16 16 15 15 16 16 16 16 16 15 14 14 14 15 15 16 16 15 15 15 17 17 16 16 15 15 14 15 15 14
4 1 2 2 0 1 1 2 1 3 4 3 2 1 3 7 7 6 6 6 8 10 8 6 4 1 3 7 2 3 3 1 3 4 6 10 13 17 19 17 17 16 15 14 13 12 12 13 12 12 11 11 11 10 10 10 10 9 9 9 10 11 12 12 13 13 15 15 15 15 15 15 16 16 15 15 15 14 14 14 14 15 16 16 15 15 16 17 16 16 15 15 14 14 14 14 13
2 0 2 2 1 0 0 1 1 3 4 3 3 2 5 9 8 7 6 6 7 7 6 4 2 1 4 5 2 2 3 3 4 6 8 10 17 21 19 18 17 15 14 12 12 12 12 12 11 11 10 10 10 10 10 10 10 10 9 10 10 10 12 12 12 13 14 15 14 14 15 14 14 15 14 15 15 14 13 13 13 15 16 15 15 15 16 17 15 15 15 14 13 13 13 13 12
1 1 2 2 1 1 0 2 2 3 2 3 5 5 6 8 8 8 6 6 6 5 3 3 5 5 5 3 3 3 4 5 6 7 12 16 20 20 18 18 16 14 13 12 12 12 12 11 10 11 10 9 9 10 10 10 10 10 10 10 10 11 11 12 13 14 14 14 14 14 14 14 13 15 15 15 14 14 13 12 13 14 16 16 15 15 15 16 15 14 14 13 12 12 11 11 12
2 1 1 0 0 0 2 3 3 2 1 2 4 6 6 6 8 10 8 6 7 5 3 4 8 8 4 2 3 2 5 7 7 10 17 21 20 19 18 17 15 13 11 12 12 11 11 9 9 9 9 9 9 10 10 11 11 11 11 11 11 11 11 11 12 13 14 14 14 14 14 13 13 14 14 14 13 13 12 12 13 13 14 16 16 15 14 15 14 13 13 12 11 10 10 10 11
2 2 1 1 1 1 2 3 2 1 1 1 1 4 7 9 9 9 8 6 5 3 4 5 6 8 4 3 4 2 8 10 12 17 22 22 19 19 18 16 14 12 11 12 12 11 9 8 9 8 9 9 9 10 10 11 11 11 11 12 11 11 11 12 12 13 13 14 14 14 14 13 13 14 14 14 12 12 13 13 13 13 14 16 16 15 14 13 13 13 12 11 11 10 10 10 10
3 1 1 1 1 2 2 2 1 1 0 1 1 3 6 7 7 9 8 6 6 5 5 4 2 7 5 6 5 3 9 15 19 22 22 21 19 19 17 15 12 12 12 12 12 11 9 8 9 9 9 9 9 9 9 10 10 10 11 11 11 11 12 12 12 12 13 13 14 14 14 13 14 14 13 14 13 12 13 13 14 13 14 15 15 14 13 12 12 12 11 11 11 10 10 10 10
1 1 1 1 1 3 3 1 1 1 1 2 2 4 5 5 7 10 9 7 8 5 5 5 6 9 9 7 4 3 10 19 23 21 20 20 20 19 17 14 11 12 13 12 12 10 9 8 8 9 9 9 9 8 9 10 10 10 10 11 11 11 12 12 12 11 12 13 14 14 13 13 14 15 13 14 14 14 14 14 14 14 14 15 15 14 13 12 10 10 10 11 10 10 10 9 10
1 1 0 2 2 3 4 2 2 1 1 1 1 2 3 6 9 8 10 8 6 8 8 8 8 11 10 5 2 7 17 21 21 19 19 20 19 18 17 14 11 12 13 13 12 10 9 9 9 9 9 8 8 8 10 10 10 10 10 12 11 12 12 12 12 11 11 12 13 13 13 14 15 15 14 14 14 15 15 14 15 14 14 14 14 13 12 11 9 9 9 9 10 10 10 9 8
2 2 1 2 2 1 2 3 3 2 1 2 2 1 3 9 11 9 11 9 7 11 7 4 6 8 9 4 2 10 18 17 17 19 20 20 19 18 16 14 13 13 13 12 12 10 9 8 8 8 8 8 8 9 8 9 11 10 11 12 11 12 12 13 13 13 13 13 13 13 13 14 15 15 15 15 13 14 16 15 14 14 13 13 12 12 11 9 9 9 8 8 9 9 9 9 8
1 1 2 2 1 1 2 3 2 4 3 2 2 2 6 9 10 10 10 9 10 10 5 5 7 6 7 4 5 9 12 14 17 19 20 20 19 18 16 15 14 13 12 12 11 10 9 8 7 7 8 8 8 8 7 8 11 11 11 13 12 12 13 14 15 15 15 15 15 14 14 13 13 15 16 16 14 13 13 14 14 13 13 12 12 11 9 9 8 8 8 8 9 8 8 8 9
1 1 2 2 2 1 2 2 1 4 3 1 1 3 4 5 9 10 11 10 5 5 7 7 8 6 7 6 6 6 8 15 18 19 20 19 19 17 16 15 14 13 12 11 11 9 8 7 6 6 8 8 7 8 8 8 10 11 12 13 13 12 13 15 16 16 16 16 15 15 15 14 13 15 15 15 15 12 11 12 13 13 13 12 10 10 9 8 8 8 8 8 8 8 8 7 8
2 1 2 2 2 1 1 1 2 4 3 1 2 3 5 3 7 11 12 11 2 4 10 9 6 5 6 8 6 7 12 19 19 18 20 19 18 17 15 15 13 13 12 10 9 8 7 6 6 6 9 9 7 7 9 9 9 10 11 13 14 13 13 14 15 15 15 16 15 14 15 14 13 14 15 15 14 12 11 10 11 11 11 10 9 9 9 8 8 8 8 8 8 7 8 7 7
2 1 2 2 1 0 1 2 2 4 3 0 1 5 9 3 4 7 5 8 8 6 5 5 5 3 7 6 8 15 20 21 20 20 20 19 18 17 15 13 12 12 11 10 9 8 7 6 6 7 11 10 7 7 9 10 10 10 11 13 14 15 14 14 15 15 15 16 15 14 15 15 14 14 14 13 13 13 12 11 10 10 10 9 9 9 9 9 8 8 7 8 8 7 7 7 7
1 2 2 1 1 2 2 3 3 4 4 2 1 6 11 4 1 3 2 6 13 7 4 3 3 6 8 7 16 24 24 23 22 21 20 19 18 16 15 13 13 11 10 10 10 8 7 6 6 8 12 11 8 7 9 11 11 10 11 13 14 15 16 16 16 15 15 15 16 15 16 16 15 15 13 12 12 12 11 11 10 10 10 10 9 9 9 9 9 8 8 8 8 8 8 8 7
1 2 2 1 2 2 1 1 2 1 5 4 2 6 11 8 3 3 5 7 8 8 6 6 7 9 12 16 25 26 24 24 22 21 19 17 16 15 14 13 13 12 11 10 10 8 7 7 7 9 13 13 10 8 9 12 12 12 13 13 14 15 15 16 17 16 15 16 15 16 17 16 16 15 12 12 11 11 11 10 10 11 11 10 10 9 8 8 9 9 9 9 9 9 9 8 8
1 2 2 2 2 1 1 1 3 3 4 5 3 6 8 8 6 4 6 6 7 10 7 7 11 11 14 20 24 24 24 23 20 20 18 16 15 15 13 13 13 12 13 12 11 9 7 7 7 9 13 15 13 10 9 12 13 13 15 15 16 15 15 16 17 17 16 16 16 16 16 15 15 13 11 10 10 10 10 9 10 10 10 10 10 9 8 8 9 10 11 10 10 9 9 8 7
2 2 2 2 2 2 1 3 1 6 1 6 5 5 5 6 8 5 8 9 7 9 9 10 12 13 14 16 20 23 22 19 19 19 17 16 15 15 15 14 14 15 15 14 12 9 8 7 8 10 13 16 15 13 11 12 14 14 15 16 16 16 16 16 17 16 16 16 17 17 16 15 14 12 10 9 9 10 9 9 10 9 9 10 10 10 10 10 11 12 12 11 10 9 9 8 7
2 3 2 2 4 3 3 3 2 5 2 5 4 4 5 4 5 5 10 10 4 7 10 13 16 16 15 14 17 20 18 17 17 17 16 15 15 15 15 15 15 15 15 14 13 10 8 8 9 11 13 15 16 16 14 13 14 16 16 17 17 17 16 16 15 16 16 16 16 15 14 14 13 11 10 9 9 9 9 10 10 9 9 10 9 10 10 10 11 11 11 10 10 9 8 8 7
1 2 2 2 3 3 4 4 2 2 3 7 6 4 1 2 3 7 12 11 7 8 10 14 17 17 17 16 17 17 16 15 14 16 16 16 15 14 14 15 15 15 15 15 13 10 9 9 10 11 13 15 16 17 16 15 15 16 16 17 18 18 17 16 15 15 15 15 14 14 14 13 12 11 10 9 9 9 9 10 10 10 9 9 9 9 8 8 8 8 9 9 8 7 7 7 6
1 2 3 2 2 5 6 5 3 2 5 6 5 2 3 3 3 7 11 8 7 9 11 14 15 18 20 18 16 15 13 13 14 16 16 17 16 15 16 16 16 16 16 15 13 11 10 10 10 11 13 15 17 18 17 17 16 16 16 17 17 18 17 17 16 15 14 14 14 13 13 12 12 11 10 10 9 9 10 10 10 9 9 9 8 7 6 5 5 5 6 6 6 6 6 6 6
1 3 3 4 2 6 4 4 3 4 6 5 4 4 3 1 3 5 6 4 6 11 12 13 15 19 20 16 13 13 13 14 14 16 18 18 18 18 19 18 17 17 17 16 14 12 11 10 11 12 13 14 17 18 18 18 18 18 17 16 16 16 16 16 15 14 14 14 13 13 12 12 12 12 11 11 10 11 10 10 10 9 8 7 6 5 4 3 3 3 3 4 5 6 7 7 7
1 4 3 2 3 6 5 6 4 5 5 4 6 6 1 5 2 5 5 6 10 13 14 13 14 16 16 13 13 12 12 14 14 15 16 17 18 18 19 18 18 18 18 18 16 14 12 11 12 13 13 14 16 17 18 19 19 19 18 16 15 15 15 15 14 14 14 14 13 13 12 12 12 12 12 11 11 11 11 10 9 7 6 5 4 3 2 1 1 1 2 3 3 4 5 6 7
3 6 3 0 6 6 5 7 5 7 4 3 5 3 3 5 1 4 4 10 13 14 15 14 13 13 13 12 12 12 11 13 15 15 15 16 17 18 18 19 18 18 19 19 17 15 13 12 13 14 14 15 16 18 19 19 18 18 17 16 14 14 14 14 13 13 13 13 12 12 11 12 12 13 13 13 12 11 10 9 7 5 4 3 2 1 0 1 1 2 2 3 3 4 4 4 6
7 10 7 3 8 7 4 6 6 8 5 3 4 2 4 5 2 4 3 10 15 15 15 13 13 13 13 12 11 13 13 13 16 16 15 15 17 18 19 19 19 19 19 19 18 16 15 14 14 14 14 15 17 18 18 17 17 16 15 15 14 13 13 13 12 12 12 12 11 11 11 12 13 13 13 13 12 10 8 6 5 4 2 1 0 1 2 3 2 2 3 3 4 3 2 2 4
9 11 9 6 9 9 6 5 3 5 4 2 3 2 3 5 3 7 6 11 15 16 15 13 12 11 12 13 11 11 12 15 17 17 16 16 18 19 20 21 20 19 20 21 20 18 16 16 15 16 15 16 18 18 17 16 15 14 14 13 12 12 13 13 12 11 11 11 11 12 12 13 13 13 12 11 9 7 6 5 3 2 1 0 1 1 2 2 2 2 3 4 4 3 2 2 3
7 6 7 4 7 8 7 4 3 3 3 3 1 3 2 4 2 6 8 11 13 15 15 12 11 10 10 11 9 8 11 15 16 17 19 19 20 21 22 23 22 21 20 21 21 19 17 17 17 17 17 17 18 18 16 15 14 13 12 11 11 12 13 13 12 12 12 12 13 13 14 13 12 12 10 8 7 6 5 4 3 2 1 1 1 2 2 1 2 3 4 4 4 4 4 3 3
5 3 4 4 5 5 4 2 2 6 3 4 2 3 2 2 1 2 6 11 14 13 13 11 10 9 9 9 8 7 9 14 16 18 21 20 20 21 22 23 24 23 21 20 21 20 19 18 18 19 19 19 19 18 16 15 14 12 11 11 11 12 13 13 12 13 13 13 14 14 13 12 11 10 9 8 7 5 5 4 3 2 2 2 1 2 2 2 2 3 4 4 5 4 4 4 4
3 2 1 2 3 3 0 1 2 6 0 4 3 3 4 4 3 2 5 11 15 13 12 11 10 9 8 8 8 7 7 14 19 21 22 22 21 21 21 23 24 24 22 22 22 21 20 20 20 20 20 20 20 18 16 15 14 12 11 12 12 13 13 12 12 12 12 12 13 13 13 11 10 9 7 7 6 6 5 4 4 3 2 3 2 2 2 2 3 3 4 5 5 5 5 5 4
2 2 0 2 2 3 2 1 1 3 2 2 2 3 3 4 4 4 5 11 14 13 12 11 11 10 9 7 7 6 6 13 20 22 23 23 22 21 22 24 25 25 24 23 22 21 21 21 21 20 20 19 19 17 16 15 13 12 12 13 13 13 13 12 12 11 11 11 11 11 10 9 8 7 7 6 6 6 6 6 5 4 3 3 3 3 3 3 4 3 4 4 4 4 4 4 4
2 2 2 1 3 4 3 1 2 2 3 0 1 3 3 3 4 6 7 10 12 12 12 12 11 10 9 8 7 6 5 9 14 19 23 24 23 23 24 25 26 26 26 25 23 22 21 22 22 21 20 19 18 17 16 15 14 13 13 14 13 13 13 13 12 11 10 9 10 10 9 8 7 7 7 7 7 7 7 6 6 4 4 3 3 4 4 4 4 3 3 3 2 3 3 3 3
2 1 2 2 3 4 4 2 3 4 3 1 2 3 2 0 3 8 9 10 11 11 12 12 10 9 9 8 7 7 6 7 9 16 23 24 24 24 24 26 26 26 26 25 25 24 22 22 22 21 20 20 18 18 17 16 15 14 14 14 14 13 12 12 11 10 9 8 9 9 9 8 8 7 6 6 7 8 8 7 6 5 4 4 3 5 6 5 4 3 3 2 3 3 2 3 3
5 4 3 3 3 2 5 4 4 6 4 3 5 3 1 3 5 4 7 8 10 11 12 11 9 9 9 9 8 7 7 8 10 18 24 25 25 25 24 24 25 26 27 26 26 24 23 23 22 21 20 20 19 18 17 16 15 15 15 15 15 14 13 12 11 10 9 8 9 9 9 8 8 7 6 6 7 8 8 8 6 5 4 4 4 5 5 5 4 2 2 3 3 2 2 3 2
8 6 5 6 4 1 3 3 3 6 4 3 6 4 3 3 4 2 2 4 7 9 10 9 8 8 9 9 8 8 8 8 12 21 25 24 26 26 25 24 25 26 27 28 27 24 23 24 22 21 20 20 19 19 19 18 17 17 17 17 17 16 15 15 13 12 10 9 9 10 9 9 8 7 7 8 8 8 8 8 7 6 4 4 4 5 5 4 3 1 2 2 2 1 2 3 3
7 4 5 7 5 3 2 2 3 3 2 2 2 5 6 4 2 3 4 3 6 8 8 8 8 9 10 11 10 9 9 8 13 22 24 24 26 27 26 25 25 24 25 28 28 24 24 25 23 22 22 21 20 21 21 20 20 19 19 19 19 18 18 17 16 15 13 13 12 12 11 10 9 8 8 9 9 8 9 8 7 6 5 3 3 3 4 4 2 1 2 2 2 2 2 4 4
7 4 5 5 4 3 3 3 4 1 2 2 1 4 7 5 3 3 5 3 6 6 9 10 10 10 10 12 12 10 8 7 11 16 20 23 24 26 26 25 26 25 25 28 28 26 25 24 24 24 24 23 22 21 22 21 21 20 20 20 19 18 18 17 16 15 15 15 15 15 14 13 11 10 10 10 10 10 10 9 7 6 5 4 4 3 4 3 2 1 2 3 2 3 3 4 3
5 4 5 4 4 4 4 5 5 5 1 3 1 3 4 2 3 4 4 2 3 3 6 8 9 9 10 11 12 10 8 7 9 12 16 21 23 26 26 25 27 28 27 28 27 26 25 24 24 24 24 24 23 22 22 21 20 19 19 19 18 18 17 17 15 13 14 14 14 15 16 15 14 11 10 11 11 11 10 10 8 7 7 5 4 4 3 2 1 2 3 4 3 3 3 4 3
4 5 5 4 6 5 2 4 5 4 1 3 2 2 1 2 2 4 4 3 2 2 4 4 6 8 9 10 10 11 11 9 10 11 13 18 22 24 24 25 27 27 28 28 27 26 26 26 25 25 25 23 22 22 22 20 19 18 17 16 17 17 17 18 17 16 15 15 14 14 15 16 15 12 10 10 11 11 11 10 8 8 8 6 5 4 3 2 2 2 2 3 4 3 2 4 5
5 7 6 6 9 5 5 8 6 2 2 2 5 2 3 2 3 5 4 2 2 2 3 4 4 5 5 7 6 8 11 11 11 11 12 16 20 22 24 26 27 27 28 29 28 28 28 28 27 25 25 23 22 22 22 21 19 18 17 17 17 17 17 18 20 21 20 18 15 14 15 15 15 14 11 11 11 11 11 10 9 8 8 6 5 4 3 3 2 1 1 3 4 3 2 3 5
4 7 8 10 12 8 12 14 9 3 1 3 6 3 3 4 5 7 4 3 4 2 3 5 5 5 4 5 6 7 9 11 13 13 14 16 19 21 22 24 26 27 29 30 30 30 29 29 29 27 25 24 23 23 23 23 20 19 19 20 20 18 18 20 21 22 22 21 17 15 14 14 15 15 13 12 11 11 10 9 9 8 7 6 5 4 4 4 2 1 1 2 3 2 2 2 5
3 7 8 8 11 12 16 17 9 3 3 5 6 4 1 2 6 10 7 6 8 5 5 7 5 6 5 5 6 6 8 10 12 13 14 16 19 20 20 23 26 27 28 30 31 30 29 30 30 29 27 25 24 24 25 25 22 20 20 20 21 20 20 21 21 21 21 20 17 14 13 13 13 14 14 13 11 10 9 9 9 8 7 6 5 5 4 4 3 2 1 1 2 2 2 2 4
4 6 11 11 12 14 17 15 6 1 3 4 6 3 1 3 7 11 10 9 10 9 8 8 6 7 6 6 6 7 9 10 11 12 12 16 20 21 22 25 27 27 28 29 29 30 30 31 31 30 29 27 25 25 26 26 23 21 21 20 20 20 20 19 20 20 19 18 17 15 14 12 12 13 14 13 10 9 9 9 9 8 7 7 6 5 4 3 4 4 3 1 1 0 2 2 3
4 5 12 11 11 12 11 8 3 1 3 4 8 4 1 3 4 5 8 10 13 14 13 11 9 9 8 7 6 7 9 10 12 13 13 16 21 24 26 27 27 27 28 29 30 30 31 32 32 31 30 29 28 27 27 26 23 20 21 21 21 21 20 19 19 19 18 17 17 16 14 13 12 13 14 12 10 9 9 9 9 9 7 7 7 6 4 4 5 5 4 3 3 2 1 2 2
3 12 13 10 11 10 6 3 3 2 2 4 10 8 3 3 2 4 6 8 14 15 14 13 11 10 10 8 7 7 8 9 12 14 16 20 23 26 27 28 27 27 29 30 30 29 30 31 31 31 31 30 29 29 29 28 24 21 21 22 21 22 22 19 18 19 18 17 17 16 15 13 13 14 14 12 10 10 9 9 10 10 9 7 7 7 5 5 6 6 4 4 3 3 2 1 1
13 15 13 11 8 5 4 3 3 1 3 5 11 12 4 2 3 6 8 13 17 15 12 13 12 11 11 9 7 7 8 9 11 12 16 22 25 26 26 26 27 27 27 28 28 28 30 30 31 31 31 29 28 30 30 29 26 22 21 22 22 23 23 20 19 19 19 18 17 17 15 13 13 15 14 12 11 11 11 10 10 11 10 9 8 8 7 6 7 7 5 4 4 4 3 2 0
12 8 9 9 5 4 4 4 3 2 4 4 8 12 6 2 4 7 12 16 17 16 15 16 17 14 11 9 7 7 8 10 11 11 13 17 19 21 23 25 26 26 26 27 27 28 29 30 30 30 30 28 27 29 31 29 26 24 22 22 22 23 23 21 20 20 19 19 18 17 16 14 14 15 14 13 13 13 12 11 10 11 11 10 9 8 8 7 7 7 6 5 5 4 4 3 2
9 8 7 7 3 3 2 1 3 4 4 4 4 10 6 5 7 8 13 15 13 13 14 14 16 16 13 10 9 7 7 10 12 12 12 12 14 18 21 23 24 25 26 27 28 28 28 29 30 30 30 28 27 28 31 29 27 25 24 22 22 22 22 21 21 20 20 19 18 18 18 16 15 16 15 14 14 14 13 12 11 11 11 10 10 9 9 8 8 8 7 6 6 5 4 4 4
8 9 6 5 4 2 1 2 2 3 4 3 5 9 3 5 5 6 12 16 15 13 11 11 13 15 14 12 10 7 7 10 11 12 12 11 14 20 22 23 25 26 27 28 28 28 29 29 30 30 30 29 27 28 30 30 27 26 25 23 22 21 21 21 21 21 20 19 19 18 18 17 16 17 17 15 14 14 14 13 12 11 11 10 9 9 9 8 8 9 8 8 8 7 5 5 4
6 6 6 7 6 4 4 4 3 3 1 2 5 5 3 2 3 4 8 11 12 11 10 10 12 12 12 10 10 8 8 10 10 12 13 13 18 22 23 24 25 26 28 28 28 28 28 29 30 30 30 29 29 29 30 30 28 26 25 24 22 22 21 21 21 20 19 19 19 19 19 18 18 18 17 16 15 14 14 13 12 12 11 11 10 10 11 10 9 9 9 9 9 8 7 6 5
2 2 5 4 6 6 3 4 5 4 2 2 3 3 4 4 4 3 0 2 6 9 8 9 11 12 11 10 10 9 8 9 10 11 12 15 21 25 25 25 26 27 28 28 28 29 29 29 30 31 31 30 30 30 31 30 28 27 26 25 23 22 22 21 21 20 19 19 19 19 18 18 18 18 17 17 16 15 14 14 13 12 12 12 11 11 11 11 10 10 10 11 10 9 9 8 7
1 2 3 4 5 7 4 1 1 3 2 1 2 3 4 2 4 4 4 3 4 7 8 10 11 12 12 11 11 10 8 9 10 11 12 15 20 24 25 26 27 27 29 29 30 31 31 31 31 31 30 31 31 32 31 30 29 28 27 26 25 24 23 22 22 21 20 19 18 18 18 18 18 19 18 17 17 16 15 14 14 13 13 13 12 12 12 12 11 11 11 11 11 10 10 10 9
5 4 5 2 2 4 4 2 2 3 1 3 2 4 4 2 2 4 5 3 3 5 7 8 9 11 12 11 11 10 9 9 10 11 12 15 19 23 25 27 29 30 30 31 32 33 33 33 33 33 32 31 32 33 32 32 31 30 29 27 27 26 24 23 23 22 21 21 20 20 19 18 18 19 19 18 17 17 16 15 15 15 14 14 14 14 13 13 13 13 13 13 12 11 12 12 11
5 5 4 3 2 1 1 2 2 2 1 3 3 3 3 1 2 6 6 2 3 4 6 7 9 10 11 10 10 10 9 8 9 10 9 11 18 23 25 26 28 30 32 33 33 33 33 33 33 33 34 34 34 33 32 32 32 31 31 30 29 28 26 24 23 21 21 21 22 21 20 19 19 19 19 18 18 18 18 17 16 16 16 16 16 15 15 14 15 15 14 14 12 12 12 13 12
2 2 1 1 3 3 1 2 3 3 2 2 3 3 2 1 4 7 8 7 3 5 6 7 9 9 9 9 9 9 9 8 8 9 8 9 15 22 27 29 30 30 31 32 33 32 32 32 32 32 32 32 32 32 32 32 32 32 31 30 30 30 29 27 24 21 21 22 22 22 21 20 20 20 20 20 19 19 19 18 17 17 17 17 17 17 15 15 15 15 15 15 13 12 13 13 13
1 2 0 1 1 2 1 0 1 4 4 2 1 1 3 3 5 6 9 9 5 7 7 6 7 8 9 9 9 9 7 6 4 4 4 3 3 6 12 19 26 30 31 31 31 32 33 32 31 31 31 30 30 32 32 32 32 31 30 30 30 30 31 29 25 22 22 22 22 22 22 21 20 20 20 21 21 20 19 19 18 18 18 17 18 17 16 15 16 15 15 15 14 14 14 14 13
3 2 2 3 3 3 2 1 2 1 4 3 4 2 3 4 5 6 7 7 4 3 5 6 6 7 8 8 8 7 6 6 6 6 6 5 6 5 1 4 9 17 26 31 31 31 31 31 32 31 31 31 31 32 32 32 31 31 30 30 29 29 30 30 27 24 23 22 22 21 21 20 20 20 19 20 21 20 19 19 19 19 18 18 18 17 16 16 16 16 15 15 15 15 15 14 14
Wind_Direction
125 154 150 132 130 118 129 284 55 351 75 75 2 66 73 131 121 106 107 127 135 210 205 120 135 135 127 126 139 125 71 127 168 145 189 202 142 146 152 152 155 151 148 145 145 149 148 146 146 147 144 143 143 143 142 141 140 138 133 131 131 129 129 126 125 127 127 128 129 129 126 124 122 123 123 121 118 118 118 114 111 111 112 112 109 107 107 106 104 106 107 107 107 104 104 103 101
150 175 172 139 153 134 77 313 73 31 69 82 2 75 97 86 104 122 142 163 171 156 128 115 112 75 80 109 125 107 50 12 124 134 105 135 134 142 155 155 157 151 147 145 149 153 152 150 148 148 146 148 149 149 148 146 144 141 137 135 133 131 130 129 127 127 127 128 131 131 127 125 124 125 125 123 120 120 119 113 111 112 112 109 109 109 107 106 106 107 107 107 105 104 105 105 103
170 197 201 173 184 160 20 17 93 97 91 106 77 309 104 99 116 138 151 159 128 115 108 107 99 64 86 94 87 90 72 6 71 98 113 140 136 146 158 157 158 153 148 149 155 158 155 152 151 154 153 155 154 153 152 150 148 145 143 139 137 135 134 134 132 134 131 130 134 133 129 127 128 127 126 125 123 123 117 111 111 112 112 111 112 114 110 107 107 107 107 107 104 105 107 107 103
180 246 192 174 89 34 34 53 112 109 113 136 103 345 110 114 126 126 131 125 117 117 115 120 101 342 95 101 96 82 104 44 94 117 133 159 153 154 159 158 161 156 152 155 158 155 151 150 154 159 157 157 155 155 157 156 154 150 148 144 141 140 140 138 138 138 134 133 136 136 132 130 129 127 127 127 124 122 116 112 113 112 114 115 115 114 111 109 108 109 108 106 105 106 109 108 102
160 50 170 170 60 357 104 83 77 96 137 171 120 134 130 126 129 121 115 105 108 116 125 137 103 57 92 94 121 100 118 120 128 129 126 152 153 154 159 160 162 157 157 159 156 151 147 149 153 158 159 158 159 161 162 161 158 155 154 149 145 145 144 143 142 138 136 136 137 136 135 132 129 126 127 127 124 121 115 114 113 111 116 118 116 114 113 112 108 109 109 107 105 106 108 107 102
67 69 185 205 158 181 77 82 97 87 170 172 123 146 144 135 133 120 101 78 75 80 98 109 110 108 89 53 53 103 151 130 132 134 129 143 153 156 158 159 161 159 161 157 153 150 147 152 154 158 160 161 165 165 165 164 161 160 160 156 152 148 147 146 142 138 137 138 138 137 136 133 129 128 130 129 126 122 117 116 116 114 119 122 120 116 114 113 109 108 110 108 104 105 107 104 100
35 346 252 206 148 131 69 91 117 95 168 159 126 147 149 139 131 118 106 90 72 57 58 99 119 105 80 78 60 87 137 128 132 137 139 146 153 154 155 159 162 160 160 154 153 152 149 156 158 160 160 161 163 162 165 165 164 164 164 163 157 149 149 147 142 139 138 139 140 139 139 134 128 130 131 128 125 121 118 119 122 118 119 123 121 116 113 113 111 109 110 109 107 107 108 104 100
75 353 290 78 35 36 73 82 100 106 164 206 139 149 149 142 132 118 117 114 106 95 102 124 118 93 63 69 78 81 102 119 133 136 142 145 149 150 155 164 165 159 157 158 157 153 152 159 160 161 161 161 162 160 162 162 164 168 170 166 152 150 155 147 141 142 142 142 142 142 141 133 129 131 130 126 123 120 118 119 124 120 117 121 119 116 113 111 110 110 110 111 111 111 109 107 106
74 41 285 54 81 66 75 62 79 84 271 243 189 153 152 147 131 116 114 103 114 119 117 143 92 95 96 73 86 79 93 122 131 133 139 142 148 152 160 169 167 158 159 162 159 155 156 164 162 162 165 165 162 159 161 159 159 169 174 162 150 157 160 147 141 144 145 145 143 144 140 132 131 132 130 127 121 117 117 120 123 120 117 119 117 115 114 111 112 113 114 112 110 112 112 113 112
47 191 214 63 76 95 106 76 90 109 234 246 183 148 159 147 117 113 115 112 118 106 91 86 71 107 116 89 89 104 117 132 130 131 140 145 153 157 164 170 167 161 161 163 161 159 161 165 166 167 169 165 160 161 167 158 153 171 170 151 156 167 158 144 143 145 145 145 145 145 140 133 130 130 131 126 122 122 122 123 122 118 117 118 117 116 116 115 118 119 115 113 112 113 113 116 117
356 329 125 81 56 103 131 120 122 144 279 316 87 139 172 130 105 105 109 110 104 100 106 88 90 112 106 92 81 120 133 137 133 137 148 153 159 162 165 168 167 164 163 162 161 162 165 169 171 171 166 156 155 172 178 158 152 174 162 142 159 167 152 145 147 148 143 144 149 147 143 136 130 131 131 125 127 130 128 126 124 122 120 121 123 120 116 118 124 124 119 117 117 116 115 119 119
17 335 8 88 67 84 121 122 134 130 39 75 113 157 154 120 108 121 119 120 116 117 134 112 127 126 100 97 109 125 137 142 142 145 153 156 158 163 165 165 165 164 164 161 159 163 169 171 171 166 155 149 157 181 181 155 157 172 155 141 160 165 151 149 150 150 147 149 153 150 143 136 132 132 130 127 131 132 129 129 128 126 122 121 122 119 117 124 132 132 129 126 120 118 120 121 118
49 308 33 68 39 66 99 117 144 115 103 135 149 135 134 119 122 137 123 126 128 130 152 130 143 133 99 108 124 136 145 152 151 148 153 153 154 159 161 162 163 163 161 158 158 163 170 171 172 157 137 137 158 179 170 154 163 165 150 145 160 164 155 155 154 153 152 152 154 153 143 136 136 133 130 130 130 129 127 129 128 125 122 120 119 118 123 134 139 140 141 135 126 124 126 124 124
127 249 74 62 352 39 101 110 164 126 134 217 98 107 122 116 140 139 120 120 121 139 123 116 132 104 109 130 135 158 153 152 152 147 149 147 148 149 152 157 156 158 156 157 159 161 168 168 171 151 122 123 158 181 163 157 165 162 152 149 156 161 159 158 154 152 152 152 156 155 145 140 142 136 132 129 127 128 129 128 127 124 120 119 120 126 134 142 147 149 151 145 137 136 138 135 131
141 209 76 74 351 14 108 120 155 133 153 262 41 107 92 77 142 135 131 124 83 149 114 119 141 98 147 164 155 169 151 150 150 144 142 138 139 139 144 148 149 153 152 158 159 159 166 163 159 136 114 121 163 180 157 157 165 161 152 149 153 155 158 156 150 150 150 152 155 154 147 146 146 137 131 129 129 131 131 127 122 121 120 123 131 139 144 147 151 154 155 151 149 150 149 148 138
126 117 73 76 270 193 151 162 142 131 143 8 345 114 97 79 139 126 154 131 124 152 108 135 175 128 165 168 144 150 147 147 145 139 135 130 130 131 136 140 144 151 152 160 160 160 166 163 152 127 114 124 166 174 151 151 154 156 150 147 152 153 154 152 148 148 151 152 152 154 152 150 144 134 131 130 131 130 131 130 127 127 128 136 143 147 148 148 150 152 156 156 160 167 164 160 151
78 74 76 77 187 202 193 173 166 147 129 110 214 121 116 143 168 72 21 105 129 139 61 94 120 116 137 132 134 141 143 143 139 136 130 128 127 127 132 136 143 150 156 162 162 165 171 168 156 134 122 128 161 173 149 143 145 153 148 141 148 152 150 148 149 149 152 152 152 154 152 149 139 131 132 133 131 129 132 136 140 142 143 149 150 148 149 150 152 155 158 160 166 174 173 168 163
87 78 105 136 205 218 168 156 242 162 113 129 169 124 131 148 140 85 71 73 108 105 80 100 94 97 108 120 132 137 140 140 139 136 131 130 129 129 134 141 148 155 161 163 165 170 175 173 162 143 131 133 155 167 148 141 146 152 145 141 145 148 146 146 149 149 149 149 153 154 149 143 134 131 136 136 132 129 132 137 143 148 149 151 148 146 149 152 155 157 161 162 166 171 171 168 167
132 100 130 191 221 268 75 140 296 353 104 132 119 118 133 145 139 133 120 113 115 109 108 115 106 105 111 123 133 137 140 142 143 139 135 137 138 139 142 149 155 160 165 166 169 175 178 174 164 150 138 139 150 157 153 143 142 145 143 143 143 145 147 147 147 147 145 146 151 151 147 140 133 133 136 132 131 130 133 139 142 143 145 146 146 148 149 152 153 156 161 164 167 169 170 171 174
164 125 176 190 179 272 234 165 2 349 30 129 127 128 122 142 144 140 135 132 133 132 139 136 127 129 131 135 137 140 143 145 145 141 141 146 148 149 150 157 161 167 171 170 173 179 180 174 167 157 145 144 146 152 159 146 139 141 141 142 143 144 145 143 142 143 144 144 146 147 145 140 134 134 134 133 135 134 136 140 141 141 144 147 148 149 149 152 154 158 164 169 171 174 177 184 193
174 141 194 168 141 215 223 145 65 351 7 112 110 107 103 134 134 127 134 128 145 166 159 151 143 143 143 144 144 146 147 146 148 146 147 151 153 153 156 161 165 172 175 173 176 178 179 180 172 161 151 148 147 150 156 152 146 144 142 142 142 143 142 141 139 139 140 141 144 144 143 138 136 137 140 144 145 145 145 143 144 144 144 145 147 148 149 152 156 162 169 175 180 188 197 205 213
151 140 92 90 134 193 195 151 109 18 71 83 68 67 6 288 112 140 152 150 170 177 166 154 145 146 148 149 149 149 150 150 154 154 153 156 156 154 157 161 165 171 174 174 176 173 177 182 173 164 157 153 148 149 152 153 152 147 144 143 142 141 142 143 140 139 138 141 145 144 142 139 140 143 147 150 150 152 150 145 142 141 141 142 143 143 144 148 155 167 178 186 195 206 216 223 232
136 146 68 33 213 198 187 154 132 133 114 100 95 99 313 325 116 155 168 169 164 154 155 150 142 145 147 148 149 151 155 156 160 161 159 159 158 157 159 163 166 169 172 173 173 170 175 177 172 167 161 155 149 148 149 150 151 148 145 145 143 142 143 144 142 142 141 145 148 147 147 145 144 147 149 149 146 145 143 141 141 141 143 141 139 138 139 142 149 168 186 199 212 222 232 237 245
96 109 62 2 205 177 165 117 117 119 120 117 97 71 19 323 156 148 164 160 137 141 145 144 137 142 147 148 152 155 157 160 168 168 164 163 163 162 162 166 170 172 170 170 172 170 171 172 168 165 161 156 153 150 148 147 149 148 147 147 146 146 147 147 147 148 150 152 154 154 153 149 147 148 148 146 141 139 138 139 141 143 145 143 143 141 140 142 147 172 198 228 241 250 255 255 259
85 101 87 345 138 138 98 92 100 86 88 83 69 60 9 257 209 128 157 150 136 141 143 143 137 141 150 152 155 157 159 166 171 169 166 167 164 160 162 167 171 174 172 169 173 171 169 169 163 163 163 160 156 152 149 147 148 149 151 152 152 153 154 153 155 157 159 159 159 159 157 151 149 148 146 144 141 140 140 143 145 148 151 153 156 150 150 156 178 234 261 277 280 285 281 269 265
125 108 102 246 119 110 91 97 95 82 59 52 70 36 310 284 358 96 174 151 139 142 144 149 142 145 156 156 159 160 165 170 170 170 169 166 162 158 161 167 172 177 175 171 175 174 170 168 162 164 165 163 160 155 152 151 152 154 157 159 159 161 163 164 164 164 165 165 163 161 158 153 150 146 143 141 142 144 147 150 152 155 155 155 161 154 216 276 285 297 316 324 325 320 309 291 271
114 110 88 53 94 84 59 79 85 90 59 43 87 13 317 310 72 107 202 153 141 142 147 154 148 150 158 158 164 167 172 171 166 168 165 162 163 160 160 166 173 178 176 172 176 178 172 169 166 165 164 165 165 161 159 158 158 160 163 166 168 168 172 174 172 170 170 170 165 160 158 155 151 148 146 146 149 152 154 152 149 148 142 138 294 304 289 298 302 310 329 328 323 316 311 317 288
115 117 88 45 85 79 52 64 61 88 61 7 91 49 331 340 86 138 171 153 143 144 150 158 154 155 160 162 169 172 176 170 163 163 165 168 169 165 164 168 172 176 178 176 179 180 175 172 171 169 167 167 168 167 166 164 164 164 168 173 176 174 175 175 172 171 170 169 164 159 158 157 156 155 153 153 155 154 153 149 149 157 158 174 298 285 262 291 305 310 317 308 305 298 281 305 296
111 109 91 80 93 69 40 39 349 68 73 287 67 66 16 11 78 150 158 150 145 146 152 159 159 161 165 169 174 177 177 170 166 168 173 176 173 171 169 170 172 174 178 180 182 182 180 176 174 173 172 172 171 170 169 170 170 170 173 176 176 171 168 167 165 165 166 167 164 162 163 164 165 164 162 160 160 160 159 161 176 191 209 214 250 277 250 258 289 292 302 297 296 301 295 298 305
99 76 95 117 99 60 15 11 40 76 66 283 72 103 235 315 322 169 160 152 145 148 156 160 164 167 173 178 181 183 173 169 173 175 177 180 177 174 172 172 173 173 176 180 182 184 184 179 176 175 176 177 175 174 175 177 179 179 177 175 172 168 164 162 160 161 164 165 164 166 168 170 170 171 173 174 176 177 177 185 202 210 217 213 240 281 253 238 262 271 280 281 282 295 300 293 301
110 90 64 81 99 118 159 236 120 86 345 274 84 138 225 272 270 199 174 158 150 156 163 164 169 173 179 185 187 187 175 175 177 177 178 181 180 177 173 173 173 174 176 179 182 185 185 182 178 175 178 181 181 182 183 181 181 180 176 173 169 166 163 161 161 163 165 165 167 170 171 173 173 178 186 193 196 196 198 203 209 211 214 223 254 270 246 242 252 253 254 257 262 276 285 281 294
84 97 75 359 69 127 134 314 31 87 183 250 76 141 207 260 237 183 172 164 157 161 166 171 176 177 181 187 188 188 180 176 174 174 177 180 181 179 175 174 174 177 179 181 183 183 184 185 181 179 180 182 186 187 185 182 180 177 176 173 169 167 165 164 165 167 169 173 177 178 178 181 184 192 201 208 213 210 212 214 212 215 227 241 252 246 238 241 244 245 247 252 259 266 273 274 295
346 96 144 117 104 130 134 12 325 115 131 185 53 142 175 245 199 161 169 172 165 166 171 176 178 178 182 185 189 185 171 169 169 171 174 178 182 182 177 175 176 179 182 182 181 181 183 185 185 184 181 181 183 183 182 181 180 178 177 174 171 170 169 168 169 172 177 183 190 192 196 202 206 209 213 220 218 213 213 212 212 218 231 239 238 238 240 243 245 247 250 262 285 276 278 283 302
293 77 113 134 139 139 141 167 248 182 147 150 112 133 182 54 125 160 177 177 171 174 179 180 179 180 182 184 189 185 171 167 170 172 173 177 182 183 179 177 177 180 181 182 181 180 182 184 185 185 182 180 179 178 179 181 181 181 180 179 176 175 174 172 172 175 179 184 194 200 205 209 210 210 217 222 215 212 210 207 210 213 219 232 245 246 246 251 252 256 273 299 321 303 300 304 305
182 169 129 133 161 181 169 168 197 180 163 155 143 135 166 42 49 161 186 184 184 185 185 184 178 178 182 184 188 186 179 175 176 174 174 176 179 180 180 178 177 177 179 180 181 180 182 184 185 185 183 182 180 177 177 180 185 187 188 188 187 185 182 179 180 182 181 185 193 196 197 196 199 209 223 222 209 206 206 207 214 215 217 234 254 252 246 249 249 268 318 328 331 326 348 336 311
166 161 143 150 159 183 180 142 158 172 136 133 167 154 137 90 37 351 220 187 201 203 195 187 175 177 182 184 187 186 186 187 179 175 174 174 176 178 179 179 177 176 177 178 178 181 183 183 185 187 184 182 181 179 180 183 188 192 195 198 197 194 189 186 187 187 187 193 199 198 194 191 193 205 221 221 213 208 207 212 220 222 227 240 252 251 238 234 245 309 346 346 351 13 36 1 326
134 116 130 150 146 123 109 108 147 176 88 77 182 145 147 151 101 314 296 177 194 212 207 195 178 177 182 184 185 183 189 190 175 174 174 173 174 175 177 179 177 175 177 178 177 182 186 184 185 187 185 183 183 183 184 186 188 193 198 201 199 194 191 191 193 193 196 202 205 205 203 199 199 207 219 220 220 219 215 217 222 221 224 229 226 226 218 218 255 331 10 14 30 62 53 9 338
130 125 136 139 139 111 66 117 131 16 52 74 359 142 161 171 152 256 280 175 180 208 207 199 184 179 183 182 182 183 187 180 167 171 172 170 171 172 174 176 177 177 179 180 180 183 186 186 186 185 185 186 187 186 187 188 190 191 194 196 195 192 192 193 196 196 200 207 212 214 216 213 207 210 217 220 223 223 219 218 220 218 216 209 202 202 206 218 268 333 23 22 33 55 43 12 357
135 130 139 140 145 104 69 106 82 7 31 114 7 166 168 196 178 212 246 206 188 221 222 205 182 180 187 183 179 180 179 168 165 169 169 169 169 170 172 175 178 180 181 183 184 186 187 187 187 186 186 188 190 190 191 191 191 191 193 194 194 195 197 197 198 196 198 208 215 218 218 214 206 205 211 217 222 222 219 217 216 217 214 210 209 207 215 241 303 342 22 29 45 61 43 23 22
150 148 146 162 169 147 121 117 79 12 299 124 127 174 242 303 267 232 215 209 240 241 253 238 187 181 189 187 181 178 176 168 169 171 169 169 169 170 173 175 179 179 180 184 186 187 188 188 189 189 190 190 192 194 195 194 194 195 199 202 203 207 210 209 210 208 205 207 212 213 210 206 204 204 207 212 219 222 220 218 219 219 216 219 220 209 229 265 296 331 14 39 53 73 54 36 42
186 176 166 169 173 154 109 124 119 66 8 95 117 82 292 227 241 251 204 168 252 238 242 249 211 193 182 179 188 189 180 169 168 172 173 171 171 174 175 176 178 179 180 184 187 189 189 190 190 192 195 196 197 197 196 196 197 197 199 202 204 207 209 211 214 214 212 210 210 208 203 204 208 209 209 212 218 224 223 223 224 221 217 220 220 216 248 261 272 331 21 48 51 73 79 62 65
207 208 201 180 163 131 113 133 139 118 217 202 155 141 259 213 214 242 223 180 226 236 233 229 203 194 181 172 187 200 190 175 170 174 174 175 176 175 175 175 177 180 182 185 188 190 190 191 191 193 196 198 199 199 196 196 197 197 194 190 188 188 189 197 206 208 207 208 210 209 206 207 212 213 213 213 218 225 227 225 223 221 218 214 216 228 247 245 244 297 12 47 41 61 99 105 91
215 217 201 170 141 126 134 149 154 160 185 199 191 176 230 238 225 228 224 216 221 220 230 232 204 190 195 188 182 187 194 183 173 174 175 176 176 174 174 177 179 182 184 185 188 190 191 192 192 194 196 195 196 196 195 196 198 201 200 194 190 188 186 190 198 200 202 205 208 211 211 208 211 214 212 211 216 222 228 228 223 225 226 218 222 231 233 230 232 249 250 47 28 53 105 119 108
235 197 163 153 145 141 149 156 155 151 107 152 204 193 87 244 233 218 213 220 228 226 227 233 219 199 198 198 188 180 188 186 175 175 178 177 178 177 176 180 183 183 183 184 186 189 191 192 193 195 197 198 197 195 196 198 200 204 206 205 203 202 200 198 199 202 204 206 209 214 215 211 211 211 208 208 213 220 228 233 231 232 230 226 230 233 229 228 225 223 217 224 284 159 120 108 100
251 155 143 146 139 134 141 143 123 123 110 154 207 198 143 251 248 197 197 216 229 226 223 224 216 205 198 196 192 181 183 187 180 175 179 181 181 181 180 182 185 184 182 184 186 189 192 193 194 196 199 202 202 199 199 202 204 208 209 209 209 210 212 211 207 208 208 208 213 217 218 217 214 209 205 207 215 223 230 235 239 238 235 232 233 235 238 234 226 225 237 265 262 223 168 106 95
103 98 102 98 99 99 101 96 82 122 154 191 200 189 174 264 238 157 170 212 226 224 220 218 213 204 197 195 192 181 177 186 186 179 180 183 183 184 183 183 184 184 185 186 187 190 192 193 195 197 200 203 205 204 204 205 207 213 213 210 213 213 212 213 212 211 210 211 215 217 218 220 216 209 207 212 221 230 234 238 242 239 238 238 235 238 244 240 231 231 254 273 251 229 216 171 109
99 93 92 84 78 71 61 36 46 136 251 231 200 189 175 298 236 181 185 208 212 210 210 210 211 207 197 194 188 180 175 181 189 184 181 183 184 184 183 182 183 184 185 186 187 190 192 194 195 198 201 204 206 206 206 207 209 215 216 214 217 215 212 211 211 211 211 212 216 219 219 221 217 212 213 219 226 233 237 241 243 239 236 237 237 241 248 249 241 242 258 258 240 238 235 230 270
106 104 113 97 54 23 43 13 345 236 249 262 202 183 175 258 249 208 212 218 209 203 203 199 200 203 199 194 186 181 177 178 185 185 182 182 181 182 182 183 183 182 183 185 187 191 192 194 195 197 201 204 207 208 207 208 211 217 219 219 220 217 214 213 212 213 212 213 219 223 223 220 216 214 217 225 231 234 239 244 244 237 231 231 236 241 248 252 248 248 255 248 246 252 242 241 264
109 122 122 101 68 27 56 346 287 236 250 293 170 159 176 249 252 229 225 230 220 210 208 197 193 197 197 194 188 183 178 178 183 183 181 179 178 181 183 183 182 181 183 186 187 190 192 194 195 197 201 204 207 208 207 209 214 220 221 221 222 219 217 218 217 217 215 216 221 224 224 222 219 217 219 227 233 234 240 246 246 237 229 228 234 241 247 250 248 249 250 247 254 262 249 244 259
132 141 133 111 112 100 187 213 263 248 271 331 129 146 200 269 261 236 221 223 218 210 207 192 187 193 195 195 187 181 181 181 183 183 180 180 181 182 183 184 184 184 186 187 188 190 192 194 196 199 203 205 208 209 209 211 217 223 224 223 224 223 222 221 219 220 221 222 225 226 228 229 228 225 224 228 233 236 242 249 250 242 233 232 239 246 250 252 249 248 251 254 258 261 256 249 256
162 160 136 135 151 158 184 198 204 212 244 43 119 156 211 224 251 240 220 227 214 198 198 186 182 190 192 191 186 181 186 185 183 183 182 181 182 182 183 185 185 187 189 189 190 191 192 195 198 201 203 205 207 209 210 215 220 224 225 225 225 225 223 222 221 223 226 227 229 231 234 236 236 232 230 231 234 239 245 249 250 246 239 240 249 257 259 257 254 252 256 260 259 259 262 257 253
210 134 111 143 175 156 151 180 170 155 133 117 156 219 230 210 266 289 183 230 198 181 185 179 181 188 186 187 188 183 188 187 183 183 182 182 183 183 184 186 188 189 190 190 191 192 193 196 199 202 204 205 207 208 211 217 221 223 223 224 225 224 222 222 223 225 229 230 232 234 236 239 238 235 234 236 238 241 246 249 251 248 240 242 252 261 262 259 258 260 262 263 259 259 264 261 254
165 128 159 198 168 131 118 133 100 98 121 205 203 256 293 308 312 336 59 98 164 173 178 179 183 186 185 190 188 183 187 187 183 182 182 182 183 184 185 187 189 189 190 192 193 194 195 197 199 202 204 205 206 208 212 217 219 221 222 223 224 223 222 224 225 227 231 234 235 236 238 240 238 236 237 239 241 242 246 250 252 249 242 244 251 257 259 259 263 267 266 263 262 263 266 265 258
131 169 204 196 69 88 111 110 36 59 166 257 223 232 289 328 305 336 25 78 165 173 175 177 181 184 190 194 187 182 184 186 184 181 181 182 182 185 187 189 190 190 192 194 195 197 197 198 200 201 203 205 207 208 210 214 217 219 221 223 223 222 223 227 230 232 234 237 237 235 236 239 239 239 240 241 243 244 246 250 251 248 246 249 252 254 256 259 264 266 263 260 262 263 265 265 260
129 171 183 112 106 277 96 135 141 120 192 278 282 266 271 221 281 333 343 308 206 174 172 175 181 187 192 194 187 181 178 182 185 180 178 182 183 185 187 189 192 193 193 195 196 198 198 199 202 203 205 207 209 209 209 212 215 218 221 223 225 224 224 228 233 235 237 239 239 236 236 239 240 242 242 243 245 245 246 249 248 247 249 252 253 254 256 259 263 264 259 256 258 260 261 261 260
52 110 39 62 144 168 165 152 156 146 165 246 303 322 296 270 321 326 310 291 234 180 181 182 185 187 188 192 189 181 176 179 184 178 176 186 189 190 189 190 192 193 195 196 196 197 199 200 201 203 206 208 208 208 208 210 213 217 220 223 226 226 226 228 232 236 238 240 240 238 239 241 244 246 245 245 247 248 247 247 247 249 251 252 252 251 254 258 260 260 256 254 257 260 262 261 261
7 96 152 290 93 130 162 148 130 132 143 190 216 299 284 302 330 321 306 294 245 193 186 185 187 186 186 191 188 181 173 158 142 133 126 115 135 180 192 196 195 193 193 196 197 197 199 201 201 203 204 205 207 208 208 210 212 214 217 220 225 226 225 226 230 235 238 239 240 241 241 244 248 250 249 247 248 248 248 247 248 251 252 252 250 250 253 256 258 258 256 255 258 261 263 264 262
174 135 174 196 159 128 126 310 298 127 131 167 165 186 278 316 334 325 324 311 277 196 179 184 186 186 187 190 187 175 143 115 102 100 108 102 81 69 64 234 223 206 196 194 196 198 199 200 202 203 204 205 207 208 209 210 212 213 215 219 222 224 224 225 229 234 237 238 239 241 241 245 249 250 248 246 246 248 248 248 249 250 250 250 249 248 249 252 255 255 255 256 257 259 262 263 264